P/2013 G4 ( PanSTARRS ) 2022

Japanese version
Home page
Updated on November 1, 2021

---------------------------------------------------------------------

* Profile

* Orbital Elements

Epoch 2022 June 30.0 TT = JDT 2459760.5
T 2022 June 19.36036 TT                                 MPC
q   2.6223052            (2000.0)            P               Q
n   0.10536075     Peri.  214.64395     -0.96804091     +0.24821464
a   4.4396643      Node   339.63777     -0.20042141     -0.85162655
e   0.4093461      Incl.    5.91621     -0.15075829     -0.46165108
P   9.35
From 40 observations 2013 Apr. 12-June 9, mean residual 0".3.

* Magnitudes Graph

        m1 = 14.5 + 5 log d + 10.0 log r

---------------------------------------------------------------------

The orbital elements are published on M.P.E.C. 2013-M31.
The magnitudes graphs are made with Comet for Windows.

---------------------------------------------------------------------

Copyright(C) Seiichi Yoshida (comet@aerith.net). All rights reserved.